www.pogodaiklimat.ru

Погода и климат >> Архив погоды >> Иран >> Бам


ПОГОДА в Баме

  • Прогноз погоды в Баме
  • Монитор погоды в Баме

АРХИВ ПОГОДЫ в Баме

Время (UTC), дата Ветер
(напр.,м/с)
 
Видим.   Явления Облачность Т
(С)
Тd
(С)
f
(%)
Тe
(С)
Тes
(С)
Комфортность P
(гПа)
Po
(гПа)
Тmin
(С)
Tmax
(С)
R
(мм)
R24
(мм)
S
(см)
18 15.03 ЮЗ 3 10 км ясно +20.4 +3.1 32 +21 +21 комфорт 1009.3 893.0
21 15.03 СЗ 2 10 км ясно +17.3 +4.3 42 +18 +18 1008.3 892.4
00 16.03 З 4 10 км ясно +16.8 +4.1 43 +16 +16 1007.1 891.5
03 16.03 З 4 10 км 1/1 600 м
[Sc]
+17.2 +4.1 42 +17 +17 1010.0 893.2 +16.5
06 16.03 З 4 10 км ясно +22.4 +0.9 24 +22 +30 комфорт 1010.9 894.7
09 16.03 С 2 10 км 1/1 1000 м
[Cu hum]
+25.6 -0.9 17 +24 +38 комфорт 1008.8 892.9
12 16.03 В 2 10 км 3/3 1200 м
[Sc diur, vesp]
+26.6 -3.5 14 +24 +27 комфорт 1006.8 891.1
15 16.03 ЮЗ 2 10 км 1/1 1200 м
[Sc diur, vesp]
+24.2 +0.6 21 +23 +23 комфорт 1008.4 892.1 +28.4
21 16.03 З 3 10 км ясно +18.3 +6.5 46 +19 +19 1007.9 892.3
00 17.03 СЗ 2 10 км ясно +17.3 +4.6 43 +18 +18 1007.0 891.5
03 17.03 СЗ 2 10 км 3/3 1200 м
[Cu hum]
+17.4 +6.4 48 +18 +18 1008.2 892.2 +15.7
06 17.03 С 2 8000 м пыль 10/3 1350 м
[Sc As trans]
+22.5 +1.1 24 +22 +25 комфорт 1009.5 893.4
09 17.03 ЮВ 2 8000 м пыль 10/3 1050 м
[Sc diur, vesp As op]
+26.0 -2.8 15 +24 +26 комфорт 1005.7 890.3
12 17.03 СЗ 3 8000 м пыль {дождь} 10/3 900 м
[Cu med, cong As op]
+17.3 +11.8 70 +17 +18 1007.1 890.1 2
15 17.03 В 2 10 км 10/6 1050 м
[Cb calv As trans]
+19.1 +11.6 62 +21 +21 комфорт 1005.8 889.3 +26.2 666
18 17.03 ЮВ 5 8000 м слаб. дождь 8/5 1200 м
[Sc As op]
+15.6 +13.8 89 +14 +14 1003.8 888.1 0.2
21 17.03 З 2 10 км {дождь} 3/3 750 м
[Frnb]
+14.2 +14.2 100 +14 +14 1002.3 887.0
00 18.03 ЮЗ 2 10 км {дождь} ясно +17.0 +7.2 52 +17 +17 1003.2 886.6
03 18.03 З 4 10 км 4/4 750 м
[Frnb]
+16.1 +6.0 51 +15 +16 1006.2 889.2 +13.9
06 18.03 ЮЗ 6 10 км 1/1 900 м
[Cu med, cong]
+20.9 -4.9 17 +20 +25 1007.2 890.1
09 18.03 З 6 10 км 1/1 900 м
[Cu med, cong]
+23.4 -1.4 19 +22 +28 комфорт 1005.3 888.7
12 18.03 З 7 10 км 1/1 1050 м
[Cb calv]
+23.8 -0.9 19 +22 +24 комфорт 1002.9 887.2
15 18.03 ЮЗ 3 10 км 1/1 1200 м
[Cb calv]
+20.0 +1.2 29 +21 +21 комфорт 1005.3 888.4 +24.7
18 18.03 З 4 10 км ясно +16.8 +3.5 41 +16 +16 1007.4 890.7
21 18.03 СЗ 2 10 км ясно +15.3 +3.0 44 +15 +15 1008.2 891.6
00 19.03 З 2 10 км ясно +12.7 +2.2 49 +12 +12 1008.4 891.4
03 19.03 З 4 10 км ясно +12.0 +0.5 45 +10 +11 1011.3 893.0 +11.5
06 19.03 СВ 2 10 км ясно +18.7 -2.3 24 +19 +32 опасность
простуды
1011.9 894.1
15 19.03 СВ 2 10 км 1/1 1200 м
[Sc diur, vesp]
+19.3 -2.1 23 +20 +20 1010.3 892.0 +22.0 666
18 19.03 С 1 10 км ясно +16.6 -0.8 31 +18 +18 1011.2 893.5
21 19.03 З 1 10 км ясно +13.8 +1.9 44 +14 +14 1010.8 893.0
00 20.03 З 3 10 км ясно +12.4 +1.5 47 +11 +11 1009.6 891.8
03 20.03 З 3 10 км 5/0
[Ci sp]
+11.5 +2.1 52 +10 +11 1011.3 892.8 +11.0 666
06 20.03 СВ 2 10 км ясно +18.9 -1.8 25 +19 +32 опасность
простуды
1011.3 893.6
09 20.03 В 3 10 км 8/0
[Cs]
+22.2 -3.4 18 +21 +32 комфорт 1009.1 891.7
12 20.03 СВ 2 10 км 8/1 1200 м
[Cu hum Cs]
+23.8 -2.1 18 +22 +26 комфорт 1006.4 889.4
15 20.03 С 2 10 км ясно +21.2 -2.4 20 +20 +20 1007.5 889.7 +24.0
18 20.03 З 2 10 км ясно +18.2 +1.0 31 +19 +19 1008.0 891.1
21 20.03 СЗ 2 10 км ясно +16.0 +4.2 45 +16 +16 1007.1 890.4
00 21.03 З 3 10 км ясно +16.2 +4.9 47 +16 +16 1005.5 889.4
03 21.03 З 2 10 км ясно +14.4 +3.0 46 +14 +15 1008.0 890.9 +14.1
06 21.03 ЮВ 2 10 км ясно +23.1 +0.2 22 +22 +35 комфорт 1008.3 892.1
09 21.03 З 3 10 км 9/1 1200 м
[Cu hum Cs]
+27.2 -6.0 11 +24 +34 комфорт 1006.8 891.0 666
12 21.03 С 4 10 км 9/1 1200 м
[Cu hum As trans Cs]
+25.2 -4.7 13 +23 +24 комфорт 1006.0 890.0
15 21.03 штиль 0 10 км 9/4 1200 м
[Sc diur, vesp Ac As]
+23.0 -3.8 16 +21 +21 комфорт 1008.2 891.2 +28.6 666
18 21.03 ЮЗ 3 10 км 8/3 1200 м
[Sc diur, vesp Ac As]
+20.8 +5.4 37 +22 +22 комфорт 1008.1 892.6
21 21.03 З 3 10 км 6/0
[Ac As]
+20.2 +4.2 35 +21 +21 комфорт 1006.3 891.4
00 22.03 З 3 10 км 6/3 1200 м
[Sc Ac As]
+19.7 +2.8 33 +20 +20 1006.8 891.5
03 22.03 ЮЗ 3 10 км 8/5 1200 м
[Sc Ac As]
+20.2 +3.6 33 +21 +21 комфорт 1008.7 892.9 +18.9
06 22.03 ЮЗ 4 10 км 9/3 1200 м
[Sc diur, vesp Ac As]
+22.1 +2.5 27 +22 +24 комфорт 1011.4 895.2
09 22.03 В 4 10 км 9/5 1050 м
[Cb calv Ac As]
+22.2 +2.1 27 +22 +24 комфорт 1010.8 894.5
12 22.03 СВ 3 10 км 10/4 1200 м
[Sc diur, vesp As trans]
+19.9 +1.8 30 +20 +21 1009.9 893.2
15 22.03 СВ 2 10 км 8/4 1200 м
[Sc diur, vesp Ac As Cs]
+18.7 +2.0 33 +19 +19 1010.6 893.8 +23.6

 

Местоположение метеостанции Бам (Иран): широта 29.10 долгота 58.40 высота над уровнем моря 1067 м.

В архиве по умолчанию представлена погода в Баме за последнюю неделю. Архивные данные за месяц целиком и за предыдущие месяцы, начиная с января 2011 года, Вы можете получить, выбрав интересующий диапазон дат из раскрывающегося списка и нажав кнопку "Ввод!".


*Определитесь, кто Вы:
робот инопланетянин человек

Внимание! Время в таблицах - всемирное. Для получения местного времени необходимо прибавить поправку, которая равна 3.5 ч.

Смотрите также архив погоды в соседних городах и на ближайших метеорологических станциях:

Погода в Кехнудже (Иран) (143 км)
Погода в Бафте (Иран) (178 км)
Погода в Кермане (Иран) (188 км)
Погода в Захедане (Иран) (244 км)
Погода в Сирджане (Иран) (263 км)
Погода в Бендер-Аббасе (Иран) (289 км)
Погода в Ираншехре (Иран) (309 км)
Погода в Нехбандане (Иран) (312 км)
Погода в Заболе (Иран) (367 км)
Погода в Эль-Хасабе (Оман) (385 км)

Пояснения к столбцам:

Ветер - указаны скорость ветра в м/с - средняя за 10 мин, порывы в срок и между сроками (в фигурных скобках) и направление, откуда дует ветер: С - северный, СВ - северо-восточный, В - восточный, ЮВ - юго-восточный, Ю - южный, ЮЗ - юго-западный, З - западный, СЗ - северо-западный.
Видимость - горизонтальная дальность видимости в метрах или километрах. При видимости от 1 до 10 км при отсутствии осадков обычно наблюдается дымка, при ухудшении видимости до 1 км и менее - туман. В сухую погоду видимость может ухудшаться дымом, пылью или мглою.
Явления - указаны атмосферные явления, наблюдавшиеся в срок или в последний час перед сроком; фигурными скобками обозначены явления, наблюдавшиеся между сроками (за 1-3 часа до срока); квадратными скобками обозначены град или гололедные отложения с указанием их диаметра в мм.
Облачность - указаны через наклонную черту общая и нижняя облачность в баллах и высота нижней границы облаков в метрах; квадратными скобками обозначены формы облаков: Ci - перистые, Cs - перисто-слоистые, Cc - перисто-кучевые, Ac - высококучевые, As - высокослоистые, Sc - слоисто-кучевые, Ns - слоисто-дождевые, Cu - кучевые, Cb - кучево-дождевые. Подробнее классификацию облаков см. в Атласе облаков (PDF).
T - Температура воздуха - температура, измеренная на высоте 2 м над землей.
Td - Температура точки росы - температура, при понижении до которой содержащийся в воздухе водяной пар достигнет насыщения.
f - Относительная влажность воздуха - влажноcть воздуха, измеренная на высоте 2 м над землей.
Te - Эффективная температура - температура, которую ощущает одетый по сезону человек в тени. Характеристика душности погоды. При расчете учитывается влияние влажности воздуха и скорости ветра на теплоощущения человека.
Tes - Эффективная температура на солнце - температура, которую ощущает человек, с поправкой на солнечный нагрев. Характеристика знойности погоды. Зависит от высоты солнца над горизонтом, облачности и скорости ветра. Ночью, в пасмурную погоду, а также при ветре 12 м/с и более поправка равна нулю.
P - Атмосферное давление - приведенное к уровню моря атмосферное давление.
Po - Атмосферное давление - измеренное на уровне метеостанции атмосферное давление.
Tmin - Минимальная температура - минимум температуры воздуха на высоте 2 м над землей.
Tmax - Максимальная температура - максимум температуры воздуха на высоте 2 м над землей.
R - Количество осадков - Количество выпавших осадков за период времени, мм. При наведении курсора мыши на число - период времени, за который выпало указанное количество осадков.
R24 - Количество осадков - Количество выпавших осадков за 24 часа, мм.
S - Снежный покров - Высота снежного покрова, см. При наведении курсора мыши на число - состояние снежного покрова и степень покрытия местности в баллах.